COSMOS 1275 DEB, 42134

Orbit data source: Space-Track

COSMOS 1275 DEB, 42134 is space debris in LEO originally from a launch on Thu, 04 Jun 1981 UTC launched from the Plesetsk Missile And Space Complex (PKMTR). Debris objects in space refer to the collection of defunct objects orbiting the Earth. Examples of debris include non-operational satellites, rocket bodies, and fragments generated from explosions, collisions, or faulty payload assembly.

Loading next visibility...
Identifier
42134, 1981-053QW
Orbit
LEO
Last TLE update
2 days ago
Origin
Manufacturer
Unknown
Mission
Spacecraft
Bus & Motor
Unknown
Mass
Unknown
Launch date (UTC)
1981-06-04 (44 years ago)
Launch vehicle
Unknown
Launch site
Plesetsk Missile And Space Complex (PKMTR)
Object type
Payload
Rocket body
Debris
Shape & HBR
Unknown
Radar Cross Section
Small (<0.1 m²)

Expand to show TLE details & history

TLE from 2 days ago
0 COSMOS 1275 DEB
1 42134U 81053QW  25198.14515131  .00000720  00000-0  91567-3 0  9997
2 42134  83.0058  96.4695 0178368  64.2392 297.7041 13.55580248530120
Epoch: 2025-07-17T03:29Z
TLE epoch observation values (Epoch: 2025-07-17T03:29:01.073Z)
Latitude
0.00003°
Longitude
108.99987°
Altitude
994.924 km
Speed
7.384 km/s
True Right ascension
06h 25m 52s
True Declination
0° 00' 00"
Sunlit
Object was in daylight at epoch
Visualization orbit readout
Latitude
-35.68815°
Longitude
-67.26014°
Altitude
1,186.347 km
Speed
7.2 km/s
Apparent Right ascension
20h 54m 51s
Apparent Declination
-44° 20' 30"
Sunlit
Object is in full shadow
Visualization observer readout
Local Sidereal Time
11:50:18
Azimuth
112.493° ESE
Elevation
-57.561°
Doppler factor
1
Orbital elements
Apogee altitude
1,181.446 km
Perigee altitude
916.494 km
Semi-major axis
7,427.107 km
Eccentricity
0.01784
Inclination
83.0058°
RAAN
96.4695°
Arg. of periapsis
64.2392°
True anomaly
295.87584°
Mean anomaly
297.7041°
Eccentric anomaly
296.79184°
Mean motion
3.39089 °/min
Orbital period
106.17 mins
BSTAR
0.00091567
Loading maneuver chart data...
Loading SW <> Apogee altitude chart data...
Loading historical data...
Loading historical data...
Loading historical data...
Loading historical data...
Loading historical data...
Loading historical data...
Loading historical data...
|